HS3PIK-2 Weather Reports


time (UTC)temp
F
wind
direction
speed
knots
gust
knots
rain 1hr
in
rain 24hr
in
rain mn
in
humidity
%
barometer
mb
20260505032146 87 0 0.0 0.0 0.00 0.00 0.00 76
20260505031616 86 0 0.0 0.0 0.00 0.00 0.00 76
20260505031048 86 0 0.0 0.0 0.00 0.00 0.00 76
20260505030521 86 0 0.0 0.0 0.00 0.00 0.00 77
20260505025956 85 0 0.0 0.0 0.00 0.00 0.00 75
20260505025431 85 0 0.0 0.0 0.00 0.00 0.00 80
20260505024901 85 0 0.0 0.0 0.00 0.00 0.00 79
20260505024339 85 0 0.0 0.0 0.00 0.00 0.00 80
20260505023814 84 0 0.0 0.0 0.00 0.00 0.00 79
20260505023247 84 0 0.0 0.0 0.00 0.00 0.00 80
20260505022719 84 0 0.0 0.0 0.00 0.00 0.00 81
20260505022152 83 0 0.0 0.0 0.00 0.00 0.00 82
20260505021624 83 0 0.0 0.0 0.00 0.00 0.00 82
20260505021057 83 0 0.0 0.0 0.00 0.00 0.00 83
20260505020532 83 0 0.0 0.0 0.00 0.00 0.00 84
20260505020005 83 0 0.0 0.0 0.00 0.00 0.00 83
20260505015440 82 0 0.0 0.0 0.00 0.00 0.00 85
20260505014912 82 0 0.0 0.0 0.00 0.00 0.00 85
20260505014345 82 0 0.0 0.0 0.00 0.00 0.00 85
20260505013820 82 0 0.0 0.0 0.00 0.00 0.00 85
20260505013252 82 0 0.0 0.0 0.00 0.00 0.00 85
20260505012723 82 0 0.0 0.0 0.00 0.00 0.00 85
20260505012152 82 0 0.0 0.0 0.00 0.00 0.00 85
20260505011625 82 0 0.0 0.0 0.00 0.00 0.00 86
20260505011057 82 0 0.0 0.0 0.00 0.00 0.00 86
20260505010533 82 0 0.0 0.0 0.00 0.00 0.00 86
20260505010007 82 0 0.0 0.0 0.00 0.00 0.00 86
20260505005443 82 0 0.0 0.0 0.00 0.00 0.00 88
20260505004915 81 0 0.0 0.0 0.00 0.00 0.00 89
20260505004350 81 0 0.0 0.0 0.00 0.00 0.00 89
20260505003818 80 0 0.0 0.0 0.00 0.00 0.00 89
20260505003250 80 0 0.0 0.0 0.00 0.00 0.00 89
20260505002725 80 0 0.0 0.0 0.00 0.00 0.00 90
20260505002155 79 0 0.0 0.0 0.00 0.00 0.00 90
20260505001628 79 0 0.0 0.0 0.00 0.00 0.00 91
20260505001106 79 0 0.0 0.0 0.00 0.00 0.00 92
20260505000536 78 0 0.0 0.0 0.00 0.00 0.00 92
20260505000011 78 0 0.0 0.0 0.00 0.00 0.00 94
20260504235448 78 0 0.0 0.0 0.00 0.00 0.00 94
20260504234923 77 0 0.0 0.0 0.00 0.00 0.00 94
20260504233718 76 0 0.0 0.0 0.00 0.00 0.00 95
20260504160335 83 0 0.0 0.0 0.00 0.00 0.00 84
20260504150900 86 0 0.0 0.0 0.00 0.00 0.00 78
20260504150328 87 0 0.0 0.0 0.00 0.00 0.00 77
20260504140904 87 0 0.0 0.0 0.00 0.00 0.00 76
20260504140625 87 0 0.0 0.0 0.00 0.00 0.00 76
20260504140213 87 0 0.0 0.0 0.00 0.00 0.00 77
20260504130814 88 0 0.0 0.0 0.00 0.00 0.00 76
20260504130800 87 0 0.0 0.0 0.00 0.00 0.00 77
20260504110244 85 0 0.0 0.0 0.00 0.00 0.00 80
20260504100230 86 0 0.0 0.0 0.00 0.00 0.00 78
20260504080752 85 0 0.0 0.0 0.00 0.00 0.00 74
20260504080222 85 0 0.0 0.0 0.00 0.00 0.00 75
20260504070205 91 0 0.0 0.0 0.00 0.00 0.00 73
20260504060148 99 0 0.0 0.0 0.00 0.00 0.00 55
20260504050721 98 0 0.0 0.0 0.00 0.00 0.00 57
20260504050151 98 0 0.0 0.0 0.00 0.00 0.00 57
20260504045626 97 0 0.0 0.0 0.00 0.00 0.00 58
20260504045101 96 0 0.0 0.0 0.00 0.00 0.00 59
20260504044531 96 0 0.0 0.0 0.00 0.00 0.00 58
20260504044001 96 0 0.0 0.0 0.00 0.00 0.00 61
20260504043735 96 0 0.0 0.0 0.00 0.00 0.00 59
20260504043207 96 0 0.0 0.0 0.00 0.00 0.00 61
20260504042643 96 0 0.0 0.0 0.00 0.00 0.00 59
20260504042115 96 0 0.0 0.0 0.00 0.00 0.00 59
20260504041553 96 0 0.0 0.0 0.00 0.00 0.00 60
20260504041020 96 0 0.0 0.0 0.00 0.00 0.00 59
20260504040453 96 0 0.0 0.0 0.00 0.00 0.00 61
20260504035925 95 0 0.0 0.0 0.00 0.00 0.00 62
20260504035358 95 0 0.0 0.0 0.00 0.00 0.00 63
20260504034830 94 0 0.0 0.0 0.00 0.00 0.00 62
20260504034303 94 0 0.0 0.0 0.00 0.00 0.00 62
20260504033733 94 0 0.0 0.0 0.00 0.00 0.00 62
20260504033208 93 0 0.0 0.0 0.00 0.00 0.00 64
20260504032638 93 0 0.0 0.0 0.00 0.00 0.00 65